Location: Newark
(52.4787°S, 179.0532°W)
Time: 03:35:46
(UTC+00:00)

Tiros 1 - Visible Passes

Search period start: 20 November 2019 00:00
Search period end: 30 November 2019 00:00
Orbit: 630 x 664 km, 48.4° (Epoch: 18 November)

Date Brightness Start Highest point End Pass type
(mag) Time Alt. Az. Time Alt. Az. Time Alt. Az.
20 Nov 9.0 13:16:04 15° NNE 13:17:18 17° NE 13:20:21 10° ENE visible
20 Nov 7.9 14:54:08 10° NW 14:58:40 40° NNE 15:03:12 10° E visible
21 Nov 8.4 13:40:35 19° NNW 13:42:54 27° NNE 13:46:59 10° E visible
22 Nov 9.0 12:27:25 16° NE 12:27:25 16° NE 12:30:12 10° ENE visible
22 Nov 7.9 14:05:03 15° NW 14:08:39 39° NNE 14:13:09 10° E visible
23 Nov 8.3 12:51:49 24° N 12:52:54 26° NNE 12:56:54 10° E visible
23 Nov 7.6 14:29:49 10° WNW 14:34:31 49° N 14:39:12 10° E visible
24 Nov 9.2 11:38:33 14° ENE 11:38:33 14° ENE 11:40:01 10° ENE visible
24 Nov 7.8 13:16:10 22° NNW 13:18:38 37° NNE 13:23:07 10° E visible
25 Nov 8.3 12:02:48 25° NNE 12:02:53 25° NNE 12:06:50 10° E visible
25 Nov 7.5 13:40:25 13° WNW 13:44:29 48° N 13:49:10 10° E visible
26 Nov 9.3 10:49:20 11° ENE 10:49:20 11° ENE 10:49:49 10° ENE visible
26 Nov 7.8 12:26:57 28° NNW 12:28:36 36° NNE 12:33:05 10° E visible
26 Nov 7.4 14:05:39 10° WNW 14:10:24 54° N 14:15:09 10° ENE visible
27 Nov 8.4 11:13:19 23° NE 11:13:19 23° NE 11:16:44 10° E visible
27 Nov 7.5 12:50:55 17° NW 12:54:27 47° NNE 12:59:08 10° E visible
27 Nov 7.5 14:31:36 10° W 14:36:20 51° N 14:41:02 10° ENE visible
28 Nov 9.3 09:59:25 10° ENE 09:59:25 10° ENE 09:59:33 10° ENE visible
28 Nov 7.8 11:36:59 27° NNW 11:38:35 35° NNE 11:43:01 10° E visible
28 Nov 7.3 13:15:37 10° WNW 13:20:22 53° N 13:25:07 10° ENE visible
29 Nov 8.3 10:22:23 22° NNE 10:22:53 22° NNE 10:26:38 10° E visible
29 Nov 7.4 11:59:51 10° WNW 12:04:25 46° NNE 12:09:06 10° E visible
29 Nov 7.4 13:41:34 10° W 13:46:18 51° N 13:51:01 10° ENE visible
